Overview Statistics Trail Chart Weather Telemetry Raw packets
 

This is the latest recevied weather packets stored in our database for station/object N3LF. If no packets are shown the sender has not sent any weather packets the latest 10 day(s).

<< 94 95 96 97 98 99 100 >>
Time Temp. Humidity Pressure Rain* Wind** Luminosity Snow
1787920510 20° C 99% 1021.3 hPa 0 mm - 98 W/m² -
1787920209 19.44° C 99% 1021.1 hPa 0 mm - 87 W/m² -
1787919902 19.44° C 99% 1021.2 hPa 0 mm - 76 W/m² -
1787919601 18.89° C 99% 1021 hPa 0 mm - 65 W/m² -
1787919297 18.89° C 99% 1021.1 hPa 0 mm - 55 W/m² -
1787918992 18.89° C 99% 1021.1 hPa 0 mm - 48 W/m² -
1787918687 18.33° C 99% 1021.2 hPa 0 mm - 42 W/m² -
1787918384 17.78° C 99% 1021 hPa 0 mm - 36 W/m² -
1787918080 17.78° C 99% 1020.6 hPa 0 mm - 30 W/m² -
1787917774 17.78° C 99% 1020.5 hPa 0 mm - 25 W/m² -
1787917471 17.78° C 99% 1020.6 hPa 0 mm - 20 W/m² -
1787917167 17.78° C 99% 1020.6 hPa 0 mm - 16 W/m² -
1787916861 17.78° C 99% 1020.5 hPa 0 mm - 12 W/m² -
1787916560 17.78° C 99% 1020.5 hPa 0 mm - 9 W/m² -
1787916255 17.22° C 99% 1020.3 hPa 0 mm - 6 W/m² -
1787915950 17.78° C 99% 1020.2 hPa 0 mm - 4 W/m² -
1787915646 17.78° C 99% 1020.2 hPa 0 mm - 2 W/m² -
1787915346 17.78° C 99% 1020.1 hPa 0 mm - 1 W/m² -
1787915041 17.78° C 99% 1020.1 hPa 0 mm - 0 W/m² -
1787914739 17.78° C 99% 1019.9 hPa 0 mm - 0 W/m² -
1787914434 17.78° C 99% 1020 hPa 0 mm - 0 W/m² -
1787914129 17.78° C 99% 1019.9 hPa 0 mm - 0 W/m² -
1787913828 17.78° C 99% 1019.9 hPa 0 mm - 0 W/m² -
1787913523 17.78° C 99% 1019.9 hPa 0 mm - 0 W/m² -
1787913222 17.78° C 99% 1019.8 hPa 0 mm - 0 W/m² -

* Rain latest hour (hover to see other rain measurements)
** Current wind speed in m/s (hover to see current wind gust speed)